Wetterdaten: Mittwoch, 24.01.2018
Datum Zeit Temp. Auen Feucht Auen Luftdruck Regen Richtung Richtung Windben
24.01.2018 00:00 -0,9 C 94 % 1029,6 hPa 0,0 mm W 275 1,6 km/h (1 Bft)
24.01.2018 00:05 -0,9 C 95 % 1029,5 hPa 0,0 mm W 275 0,0 km/h (0 Bft)
24.01.2018 00:10 -1,0 C 95 % 1029,5 hPa 0,0 mm W 275 0,0 km/h (0 Bft)
24.01.2018 00:15 -1,0 C 95 % 1029,5 hPa 0,0 mm W 275 3,2 km/h (1 Bft)
24.01.2018 00:20 -1,0 C 95 % 1029,5 hPa 0,0 mm W 275 3,2 km/h (1 Bft)
24.01.2018 00:25 -1,1 C 95 % 1029,5 hPa 0,0 mm W 275 0,0 km/h (0 Bft)
24.01.2018 00:30 -1,1 C 95 % 1029,5 hPa 0,0 mm W 275 0,0 km/h (0 Bft)
24.01.2018 00:35 -1,1 C 95 % 1029,6 hPa 0,0 mm W 275 0,0 km/h (0 Bft)
24.01.2018 00:40 -1,3 C 95 % 1029,6 hPa 0,0 mm W 275 0,0 km/h (0 Bft)
24.01.2018 00:45 -1,3 C 95 % 1029,6 hPa 0,0 mm W 275 0,0 km/h (0 Bft)
24.01.2018 00:50 -1,3 C 95 % 1029,6 hPa 0,0 mm W 275 0,0 km/h (0 Bft)
24.01.2018 00:55 -1,4 C 95 % 1029,6 hPa 0,0 mm W 275 0,0 km/h (0 Bft)
24.01.2018 01:00 -1,3 C 95 % 1029,6 hPa 0,0 mm W 275 0,0 km/h (0 Bft)
24.01.2018 01:05 -1,4 C 95 % 1029,7 hPa 0,0 mm W 275 0,0 km/h (0 Bft)
24.01.2018 01:10 -1,4 C 95 % 1029,7 hPa 0,0 mm W 275 0,0 km/h (0 Bft)
24.01.2018 01:15 -1,5 C 95 % 1029,7 hPa 0,0 mm W 275 0,0 km/h (0 Bft)
24.01.2018 01:20 -1,6 C 95 % 1029,7 hPa 0,0 mm W 275 0,0 km/h (0 Bft)
24.01.2018 01:25 -1,6 C 95 % 1029,7 hPa 0,0 mm W 275 0,0 km/h (0 Bft)
24.01.2018 01:30 -1,6 C 95 % 1029,7 hPa 0,0 mm W 275 0,0 km/h (0 Bft)
24.01.2018 01:35 -1,7 C 95 % 1029,7 hPa 0,0 mm W 275 0,0 km/h (0 Bft)
24.01.2018 01:40 -1,7 C 95 % 1029,7 hPa 0,0 mm W 275 0,0 km/h (0 Bft)
24.01.2018 01:45 -1,8 C 95 % 1029,8 hPa 0,0 mm W 275 0,0 km/h (0 Bft)
24.01.2018 01:50 -1,9 C 95 % 1029,8 hPa 0,0 mm W 275 0,0 km/h (0 Bft)
24.01.2018 01:55 -1,9 C 95 % 1029,9 hPa 0,0 mm W 275 0,0 km/h (0 Bft)
24.01.2018 02:00 -2,0 C 95 % 1029,9 hPa 0,0 mm W 275 0,0 km/h (0 Bft)
24.01.2018 02:05 -2,0 C 95 % 1030,1 hPa 0,0 mm W 275 0,0 km/h (0 Bft)
24.01.2018 02:10 -2,0 C 95 % 1030,1 hPa 0,0 mm W 275 0,0 km/h (0 Bft)
24.01.2018 02:15 -2,1 C 95 % 1030,0 hPa 0,0 mm W 275 0,0 km/h (0 Bft)
24.01.2018 02:20 -2,0 C 95 % 1030,0 hPa 0,0 mm W 275 0,0 km/h (0 Bft)
24.01.2018 02:25 -1,9 C 95 % 1030,1 hPa 0,0 mm W 275 0,0 km/h (0 Bft)
24.01.2018 02:30 -2,0 C 95 % 1030,1 hPa 0,0 mm W 275 0,0 km/h (0 Bft)
24.01.2018 02:35 -2,0 C 95 % 1030,2 hPa 0,0 mm W 275 0,0 km/h (0 Bft)
24.01.2018 02:40 -2,1 C 95 % 1030,2 hPa 0,0 mm W 275 0,0 km/h (0 Bft)
24.01.2018 02:45 -2,2 C 95 % 1030,2 hPa 0,0 mm W 275 0,0 km/h (0 Bft)
24.01.2018 02:50 -2,2 C 95 % 1030,0 hPa 0,0 mm W 275 0,0 km/h (0 Bft)
24.01.2018 02:55 -2,2 C 95 % 1030,1 hPa 0,0 mm W 275 0,0 km/h (0 Bft)
24.01.2018 03:00 -2,2 C 95 % 1030,1 hPa 0,0 mm W 275 0,0 km/h (0 Bft)
24.01.2018 03:05 -2,3 C 95 % 1030,1 hPa 0,0 mm W 275 0,0 km/h (0 Bft)
24.01.2018 03:10 -2,4 C 95 % 1030,3 hPa 0,0 mm W 275 3,2 km/h (1 Bft)
24.01.2018 03:15 -2,4 C 95 % 1030,4 hPa 0,0 mm W 275 0,0 km/h (0 Bft)
24.01.2018 03:20 -2,4 C 95 % 1030,4 hPa 0,0 mm W 275 1,6 km/h (1 Bft)
24.01.2018 03:25 -2,5 C 95 % 1030,3 hPa 0,0 mm W 275 0,0 km/h (0 Bft)
24.01.2018 03:30 -2,5 C 95 % 1030,2 hPa 0,0 mm W 275 3,2 km/h (1 Bft)
24.01.2018 03:35 -2,7 C 95 % 1030,1 hPa 0,0 mm W 275 3,2 km/h (1 Bft)
24.01.2018 03:40 -2,7 C 95 % 1030,1 hPa 0,0 mm W 275 3,2 km/h (1 Bft)
24.01.2018 03:45 -2,8 C 95 % 1030,0 hPa 0,0 mm W 275 4,8 km/h (1 Bft)
24.01.2018 03:50 -2,8 C 95 % 1030,0 hPa 0,0 mm W 275 6,4 km/h (2 Bft)
24.01.2018 03:55 -2,8 C 95 % 1029,8 hPa 0,0 mm W 275 4,8 km/h (1 Bft)
24.01.2018 04:00 -2,7 C 95 % 1029,9 hPa 0,0 mm W 275 4,8 km/h (1 Bft)
24.01.2018 04:05 -2,7 C 95 % 1029,9 hPa 0,0 mm W 275 4,8 km/h (1 Bft)
24.01.2018 04:10 -2,6 C 95 % 1029,9 hPa 0,0 mm W 275 4,8 km/h (1 Bft)
24.01.2018 04:15 -2,6 C 95 % 1029,9 hPa 0,0 mm W 275 3,2 km/h (1 Bft)
24.01.2018 04:20 -2,6 C 95 % 1029,9 hPa 0,0 mm W 275 3,2 km/h (1 Bft)
24.01.2018 04:25 -2,5 C 95 % 1029,9 hPa 0,0 mm W 275 3,2 km/h (1 Bft)
24.01.2018 04:30 -2,4 C 95 % 1029,9 hPa 0,0 mm W 275 0,0 km/h (0 Bft)
24.01.2018 04:35 -2,2 C 95 % 1029,8 hPa 0,0 mm W 275 0,0 km/h (0 Bft)
24.01.2018 04:40 -2,2 C 95 % 1029,8 hPa 0,0 mm W 275 0,0 km/h (0 Bft)
24.01.2018 04:45 -2,1 C 95 % 1029,8 hPa 0,0 mm W 275 1,6 km/h (1 Bft)
24.01.2018 04:50 -2,1 C 95 % 1029,8 hPa 0,0 mm W 275 0,0 km/h (0 Bft)
24.01.2018 04:55 -2,0 C 95 % 1029,8 hPa 0,0 mm W 275 0,0 km/h (0 Bft)
24.01.2018 05:00 -1,9 C 95 % 1029,7 hPa 0,0 mm W 275 0,0 km/h (0 Bft)
24.01.2018 05:05 -1,9 C 96 % 1029,8 hPa 0,0 mm W 275 0,0 km/h (0 Bft)
24.01.2018 05:10 -1,7 C 96 % 1029,7 hPa 0,0 mm W 275 0,0 km/h (0 Bft)
24.01.2018 05:15 -1,7 C 95 % 1029,8 hPa 0,0 mm W 275 0,0 km/h (0 Bft)
24.01.2018 05:20 -1,6 C 95 % 1029,9 hPa 0,0 mm W 275 3,2 km/h (1 Bft)
24.01.2018 05:25 -1,6 C 96 % 1029,9 hPa 0,0 mm W 275 3,2 km/h (1 Bft)
24.01.2018 05:30 -1,4 C 96 % 1029,8 hPa 0,0 mm W 275 0,0 km/h (0 Bft)
24.01.2018 05:35 -1,3 C 96 % 1029,7 hPa 0,0 mm W 275 0,0 km/h (0 Bft)
24.01.2018 05:40 -1,3 C 96 % 1029,7 hPa 0,0 mm W 275 0,0 km/h (0 Bft)
24.01.2018 05:45 -1,2 C 96 % 1029,7 hPa 0,0 mm W 275 0,0 km/h (0 Bft)
24.01.2018 05:50 -1,1 C 96 % 1029,7 hPa 0,0 mm W 275 0,0 km/h (0 Bft)
24.01.2018 05:55 -1,1 C 96 % 1029,7 hPa 0,0 mm W 275 3,2 km/h (1 Bft)
24.01.2018 06:00 -0,9 C 96 % 1029,7 hPa 0,0 mm W 275 3,2 km/h (1 Bft)
24.01.2018 06:05 -0,9 C 96 % 1029,8 hPa 0,0 mm W 275 1,6 km/h (1 Bft)
24.01.2018 06:10 -0,8 C 96 % 1029,8 hPa 0,0 mm W 275 3,2 km/h (1 Bft)
24.01.2018 06:15 -0,8 C 96 % 1029,8 hPa 0,0 mm W 275 3,2 km/h (1 Bft)
24.01.2018 06:20 -0,8 C 96 % 1029,8 hPa 0,0 mm W 275 3,2 km/h (1 Bft)
24.01.2018 06:25 -0,7 C 96 % 1029,8 hPa 0,0 mm W 275 4,8 km/h (1 Bft)
24.01.2018 06:30 -0,7 C 96 % 1029,8 hPa 0,0 mm W 275 3,2 km/h (1 Bft)
24.01.2018 06:35 -0,7 C 96 % 1029,8 hPa 0,0 mm W 275 0,0 km/h (0 Bft)
24.01.2018 06:40 -0,7 C 96 % 1029,9 hPa 0,0 mm W 275 0,0 km/h (0 Bft)
24.01.2018 06:45 -0,6 C 96 % 1029,8 hPa 0,0 mm W 275 0,0 km/h (0 Bft)
24.01.2018 06:50 -0,6 C 96 % 1029,8 hPa 0,0 mm W 275 0,0 km/h (0 Bft)
24.01.2018 06:55 -0,6 C 96 % 1029,8 hPa 0,0 mm W 275 0,0 km/h (0 Bft)
24.01.2018 07:00 -0,6 C 96 % 1029,9 hPa 0,0 mm W 275 0,0 km/h (0 Bft)
24.01.2018 07:05 -0,5 C 96 % 1029,9 hPa 0,0 mm W 275 0,0 km/h (0 Bft)
24.01.2018 07:10 -0,4 C 96 % 1029,8 hPa 0,0 mm W 275 0,0 km/h (0 Bft)
24.01.2018 07:15 -0,4 C 96 % 1029,8 hPa 0,0 mm W 275 0,0 km/h (0 Bft)
24.01.2018 07:20 -0,4 C 96 % 1029,8 hPa 0,0 mm W 275 0,0 km/h (0 Bft)
24.01.2018 07:25 -0,3 C 96 % 1029,8 hPa 0,0 mm W 275 0,0 km/h (0 Bft)
24.01.2018 07:30 -0,3 C 96 % 1029,8 hPa 0,0 mm W 275 0,0 km/h (0 Bft)
24.01.2018 07:35 -0,2 C 96 % 1029,9 hPa 0,0 mm W 275 0,0 km/h (0 Bft)
24.01.2018 07:40 -0,2 C 96 % 1029,9 hPa 0,0 mm W 275 0,0 km/h (0 Bft)
24.01.2018 07:45 -0,1 C 96 % 1030,0 hPa 0,0 mm W 275 0,0 km/h (0 Bft)
24.01.2018 07:50 -0,1 C 96 % 1030,0 hPa 0,0 mm W 275 0,0 km/h (0 Bft)
24.01.2018 07:55 0,0 C 96 % 1030,0 hPa 0,0 mm W 275 0,0 km/h (0 Bft)
24.01.2018 08:00 0,1 C 96 % 1030,1 hPa 0,0 mm W 275 0,0 km/h (0 Bft)
24.01.2018 08:05 0,1 C 96 % 1030,1 hPa 0,0 mm W 275 0,0 km/h (0 Bft)
24.01.2018 08:10 0,2 C 96 % 1030,0 hPa 0,0 mm W 275 0,0 km/h (0 Bft)
24.01.2018 08:15 0,2 C 96 % 1030,0 hPa 0,0 mm N 5 6,4 km/h (2 Bft)
24.01.2018 08:20 0,3 C 96 % 1030,0 hPa 0,0 mm N 5 3,2 km/h (1 Bft)
24.01.2018 08:25 0,4 C 96 % 1030,0 hPa 0,0 mm N 5 4,8 km/h (1 Bft)
24.01.2018 08:30 0,4 C 96 % 1030,0 hPa 0,0 mm N 5 0,0 km/h (0 Bft)
24.01.2018 08:35 0,4 C 96 % 1029,9 hPa 0,0 mm N 5 0,0 km/h (0 Bft)
24.01.2018 08:40 0,4 C 96 % 1029,9 hPa 0,0 mm N 5 1,6 km/h (1 Bft)
24.01.2018 08:45 0,5 C 96 % 1029,9 hPa 0,0 mm N 5 3,2 km/h (1 Bft)
24.01.2018 08:50 0,6 C 96 % 1029,9 hPa 0,0 mm N 5 0,0 km/h (0 Bft)
24.01.2018 08:55 0,7 C 96 % 1029,9 hPa 0,0 mm N 5 0,0 km/h (0 Bft)
24.01.2018 09:00 0,7 C 96 % 1030,0 hPa 0,0 mm N 5 0,0 km/h (0 Bft)
24.01.2018 09:05 0,8 C 96 % 1030,0 hPa 0,0 mm N 5 3,2 km/h (1 Bft)
24.01.2018 09:10 0,8 C 96 % 1029,8 hPa 0,0 mm N 5 1,6 km/h (1 Bft)
24.01.2018 09:15 0,8 C 96 % 1029,8 hPa 0,0 mm N 5 3,2 km/h (1 Bft)
24.01.2018 09:20 0,9 C 96 % 1029,9 hPa 0,0 mm N 5 3,2 km/h (1 Bft)
24.01.2018 09:25 1,1 C 96 % 1029,9 hPa 0,0 mm N 5 1,6 km/h (1 Bft)
24.01.2018 09:30 1,1 C 96 % 1029,8 hPa 0,0 mm N 5 0,0 km/h (0 Bft)
24.01.2018 09:35 1,1 C 96 % 1029,8 hPa 0,0 mm N 5 0,0 km/h (0 Bft)
24.01.2018 09:40 1,1 C 96 % 1029,8 hPa 0,0 mm N 5 0,0 km/h (0 Bft)
24.01.2018 09:45 1,4 C 96 % 1029,8 hPa 0,0 mm N 5 1,6 km/h (1 Bft)
24.01.2018 09:50 1,3 C 96 % 1029,8 hPa 0,0 mm N 5 1,6 km/h (1 Bft)
24.01.2018 09:55 1,3 C 96 % 1029,8 hPa 0,0 mm N 5 0,0 km/h (0 Bft)
24.01.2018 10:00 1,3 C 96 % 1029,8 hPa 0,0 mm N 5 0,0 km/h (0 Bft)
24.01.2018 10:05 1,3 C 96 % 1029,7 hPa 0,0 mm N 5 1,6 km/h (1 Bft)
24.01.2018 10:10 1,4 C 96 % 1029,8 hPa 0,0 mm N 5 0,0 km/h (0 Bft)
24.01.2018 10:15 1,4 C 96 % 1029,8 hPa 0,0 mm N 5 1,6 km/h (1 Bft)
24.01.2018 10:20 1,6 C 96 % 1029,8 hPa 0,0 mm N 5 3,2 km/h (1 Bft)
24.01.2018 10:25 1,7 C 96 % 1029,8 hPa 0,0 mm N 5 0,0 km/h (0 Bft)
24.01.2018 10:30 2,1 C 96 % 1029,8 hPa 0,0 mm N 5 0,0 km/h (0 Bft)
24.01.2018 10:35 1,9 C 96 % 1029,7 hPa 0,0 mm N 5 0,0 km/h (0 Bft)
24.01.2018 10:40 1,6 C 95 % 1029,6 hPa 0,0 mm N 5 0,0 km/h (0 Bft)
24.01.2018 10:45 2,0 C 96 % 1029,6 hPa 0,0 mm N 5 0,0 km/h (0 Bft)
24.01.2018 10:50 2,1 C 95 % 1029,5 hPa 0,0 mm N 5 0,0 km/h (0 Bft)
24.01.2018 10:55 2,3 C 95 % 1029,5 hPa 0,0 mm N 5 3,2 km/h (1 Bft)
24.01.2018 11:00 2,2 C 94 % 1029,5 hPa 0,0 mm N 5 1,6 km/h (1 Bft)
24.01.2018 11:05 2,1 C 94 % 1029,4 hPa 0,0 mm N 5 1,6 km/h (1 Bft)
24.01.2018 11:10 2,3 C 94 % 1029,3 hPa 0,0 mm N 5 3,2 km/h (1 Bft)
24.01.2018 11:15 3,0 C 94 % 1029,3 hPa 0,0 mm N 5 0,0 km/h (0 Bft)
24.01.2018 11:20 3,2 C 93 % 1029,2 hPa 0,0 mm N 5 0,0 km/h (0 Bft)
24.01.2018 11:25 3,3 C 91 % 1029,1 hPa 0,0 mm N 5 0,0 km/h (0 Bft)
24.01.2018 11:30 3,6 C 90 % 1029,1 hPa 0,0 mm N 5 0,0 km/h (0 Bft)
24.01.2018 11:35 3,8 C 89 % 1029,0 hPa 0,0 mm N 5 0,0 km/h (0 Bft)
24.01.2018 11:40 3,6 C 89 % 1028,9 hPa 0,0 mm N 5 0,0 km/h (0 Bft)
24.01.2018 11:45 3,3 C 89 % 1028,9 hPa 0,0 mm N 5 0,0 km/h (0 Bft)
24.01.2018 11:50 3,5 C 90 % 1028,8 hPa 0,0 mm N 5 0,0 km/h (0 Bft)
24.01.2018 11:55 3,8 C 88 % 1028,6 hPa 0,0 mm N 5 0,0 km/h (0 Bft)
24.01.2018 12:00 4,1 C 86 % 1028,6 hPa 0,0 mm N 5 0,0 km/h (0 Bft)
24.01.2018 12:05 4,6 C 86 % 1028,6 hPa 0,0 mm N 5 0,0 km/h (0 Bft)
24.01.2018 12:10 5,1 C 83 % 1028,5 hPa 0,0 mm N 5 0,0 km/h (0 Bft)
24.01.2018 12:15 4,5 C 83 % 1028,5 hPa 0,0 mm N 5 0,0 km/h (0 Bft)
24.01.2018 12:20 4,6 C 84 % 1028,4 hPa 0,0 mm N 9 3,2 km/h (1 Bft)
24.01.2018 12:25 4,9 C 85 % 1028,3 hPa 0,0 mm N 9 1,6 km/h (1 Bft)
24.01.2018 12:30 4,8 C 83 % 1028,2 hPa 0,0 mm N 9 3,2 km/h (1 Bft)
24.01.2018 12:35 4,1 C 84 % 1028,1 hPa 0,0 mm N 9 3,2 km/h (1 Bft)
24.01.2018 12:40 4,2 C 86 % 1028,0 hPa 0,0 mm O-SO 113 4,8 km/h (1 Bft)
24.01.2018 12:45 4,8 C 85 % 1028,0 hPa 0,0 mm SO 132 6,4 km/h (2 Bft)
24.01.2018 12:50 4,7 C 84 % 1027,9 hPa 0,0 mm SO 132 4,8 km/h (1 Bft)
24.01.2018 12:55 5,0 C 83 % 1027,9 hPa 0,0 mm SO 137 4,8 km/h (1 Bft)
24.01.2018 13:00 5,1 C 84 % 1027,8 hPa 0,0 mm SO 137 4,8 km/h (1 Bft)
24.01.2018 13:05 5,4 C 83 % 1027,8 hPa 0,0 mm SO 137 4,8 km/h (1 Bft)
24.01.2018 13:10 5,2 C 83 % 1027,7 hPa 0,0 mm SO 137 1,6 km/h (1 Bft)
24.01.2018 13:15 5,2 C 84 % 1027,7 hPa 0,0 mm SO 138 4,8 km/h (1 Bft)
24.01.2018 13:20 5,7 C 82 % 1027,7 hPa 0,0 mm SO 144 4,8 km/h (1 Bft)
24.01.2018 13:25 5,5 C 82 % 1027,6 hPa 0,0 mm SO 144 4,8 km/h (1 Bft)
24.01.2018 13:30 5,7 C 81 % 1027,4 hPa 0,0 mm SO 144 6,4 km/h (2 Bft)
24.01.2018 13:35 5,8 C 81 % 1027,2 hPa 0,0 mm SO 144 4,8 km/h (1 Bft)
24.01.2018 13:40 5,6 C 79 % 1027,2 hPa 0,0 mm SO 144 4,8 km/h (1 Bft)
24.01.2018 13:45 5,4 C 82 % 1027,1 hPa 0,0 mm SO 144 0,0 km/h (0 Bft)
24.01.2018 13:50 5,1 C 82 % 1027,1 hPa 0,0 mm SO 144 1,6 km/h (1 Bft)
24.01.2018 13:55 5,0 C 83 % 1027,0 hPa 0,0 mm SO 144 1,6 km/h (1 Bft)
24.01.2018 14:00 5,3 C 82 % 1026,9 hPa 0,0 mm SO 144 3,2 km/h (1 Bft)
24.01.2018 14:05 4,9 C 84 % 1026,8 hPa 0,0 mm SO 144 1,6 km/h (1 Bft)
24.01.2018 14:10 5,0 C 84 % 1026,7 hPa 0,0 mm SO 144 3,2 km/h (1 Bft)
24.01.2018 14:15 4,9 C 84 % 1026,7 hPa 0,0 mm SO 144 3,2 km/h (1 Bft)
24.01.2018 14:20 5,2 C 83 % 1026,5 hPa 0,0 mm SO 144 4,8 km/h (1 Bft)
24.01.2018 14:25 5,2 C 82 % 1026,4 hPa 0,0 mm SO 144 1,6 km/h (1 Bft)
24.01.2018 14:30 5,2 C 83 % 1026,4 hPa 0,0 mm SO 144 3,2 km/h (1 Bft)
24.01.2018 14:35 5,5 C 82 % 1026,4 hPa 0,0 mm SO 144 3,2 km/h (1 Bft)
24.01.2018 14:40 5,7 C 81 % 1026,3 hPa 0,0 mm SO 144 1,6 km/h (1 Bft)
24.01.2018 14:45 5,2 C 81 % 1026,3 hPa 0,0 mm SO 144 0,0 km/h (0 Bft)
24.01.2018 14:50 5,2 C 83 % 1026,3 hPa 0,0 mm SO 144 0,0 km/h (0 Bft)
24.01.2018 14:55 5,1 C 83 % 1026,2 hPa 0,0 mm SO 144 0,0 km/h (0 Bft)
24.01.2018 15:00 5,8 C 81 % 1026,3 hPa 0,0 mm SO 144 3,2 km/h (1 Bft)
24.01.2018 15:05 6,1 C 80 % 1026,2 hPa 0,0 mm SO 144 4,8 km/h (1 Bft)
24.01.2018 15:10 5,3 C 81 % 1026,1 hPa 0,0 mm SO 144 1,6 km/h (1 Bft)
24.01.2018 15:15 4,9 C 82 % 1026,1 hPa 0,0 mm SO 144 1,6 km/h (1 Bft)
24.01.2018 15:20 4,7 C 84 % 1026,1 hPa 0,0 mm SO 144 3,2 km/h (1 Bft)
24.01.2018 15:25 5,1 C 85 % 1026,1 hPa 0,0 mm SO 144 4,8 km/h (1 Bft)
24.01.2018 15:30 4,7 C 84 % 1026,0 hPa 0,0 mm SO 144 1,6 km/h (1 Bft)
24.01.2018 15:35 4,8 C 85 % 1026,1 hPa 0,0 mm SO 144 1,6 km/h (1 Bft)
24.01.2018 15:40 4,8 C 84 % 1026,0 hPa 0,0 mm SO 144 0,0 km/h (0 Bft)
24.01.2018 15:45 5,0 C 84 % 1026,0 hPa 0,0 mm SO 144 0,0 km/h (0 Bft)
24.01.2018 15:50 5,1 C 84 % 1026,0 hPa 0,0 mm SO 144 0,0 km/h (0 Bft)
24.01.2018 15:55 5,0 C 84 % 1026,0 hPa 0,0 mm SO 144 0,0 km/h (0 Bft)
24.01.2018 16:00 5,0 C 84 % 1025,9 hPa 0,0 mm SO 144 0,0 km/h (0 Bft)
24.01.2018 16:05 4,9 C 84 % 1025,9 hPa 0,0 mm SO 144 1,6 km/h (1 Bft)
24.01.2018 16:10 4,8 C 85 % 1025,9 hPa 0,0 mm SO 144 0,0 km/h (0 Bft)
24.01.2018 16:15 4,4 C 86 % 1025,9 hPa 0,0 mm SO 144 0,0 km/h (0 Bft)
24.01.2018 16:20 4,3 C 86 % 1025,8 hPa 0,0 mm SO 144 0,0 km/h (0 Bft)
24.01.2018 16:25 4,2 C 85 % 1025,7 hPa 0,0 mm SO 144 0,0 km/h (0 Bft)
24.01.2018 16:30 4,1 C 86 % 1025,7 hPa 0,0 mm SO 144 0,0 km/h (0 Bft)
24.01.2018 16:35 4,2 C 86 % 1025,7 hPa 0,0 mm SO 144 0,0 km/h (0 Bft)
24.01.2018 16:40 3,8 C 87 % 1025,7 hPa 0,0 mm SO 144 0,0 km/h (0 Bft)
24.01.2018 16:45 3,6 C 88 % 1025,6 hPa 0,0 mm SO 144 0,0 km/h (0 Bft)
24.01.2018 16:50 3,3 C 89 % 1025,6 hPa 0,0 mm SO 144 0,0 km/h (0 Bft)
24.01.2018 16:55 3,2 C 89 % 1025,6 hPa 0,0 mm SO 144 0,0 km/h (0 Bft)
24.01.2018 17:00 3,0 C 89 % 1025,4 hPa 0,0 mm SO 144 0,0 km/h (0 Bft)
24.01.2018 17:05 2,8 C 90 % 1025,4 hPa 0,0 mm SO 144 0,0 km/h (0 Bft)
24.01.2018 17:10 2,5 C 90 % 1025,4 hPa 0,0 mm SO 144 0,0 km/h (0 Bft)
24.01.2018 17:15 2,4 C 90 % 1025,4 hPa 0,0 mm SO 144 1,6 km/h (1 Bft)
24.01.2018 17:20 2,6 C 91 % 1025,4 hPa 0,0 mm SO 144 3,2 km/h (1 Bft)
24.01.2018 17:25 2,6 C 92 % 1025,3 hPa 0,0 mm SO 144 0,0 km/h (0 Bft)
24.01.2018 17:30 2,4 C 91 % 1025,3 hPa 0,0 mm SO 144 0,0 km/h (0 Bft)
24.01.2018 17:35 1,9 C 91 % 1025,3 hPa 0,0 mm SO 144 3,2 km/h (1 Bft)
24.01.2018 17:40 1,9 C 92 % 1025,2 hPa 0,0 mm SO 145 4,8 km/h (1 Bft)
24.01.2018 17:45 2,1 C 93 % 1025,1 hPa 0,0 mm SO 145 3,2 km/h (1 Bft)
24.01.2018 17:50 1,9 C 92 % 1025,1 hPa 0,0 mm SO 145 1,6 km/h (1 Bft)
24.01.2018 17:55 1,6 C 92 % 1025,1 hPa 0,0 mm SO 145 1,6 km/h (1 Bft)
24.01.2018 18:00 1,8 C 93 % 1024,9 hPa 0,0 mm SO 145 3,2 km/h (1 Bft)
24.01.2018 18:05 1,7 C 93 % 1024,9 hPa 0,0 mm SO 145 3,2 km/h (1 Bft)
24.01.2018 18:10 1,6 C 93 % 1024,9 hPa 0,0 mm SO 145 3,2 km/h (1 Bft)
24.01.2018 18:15 1,4 C 93 % 1024,8 hPa 0,0 mm SO 145 0,0 km/h (0 Bft)
24.01.2018 18:20 1,3 C 93 % 1024,8 hPa 0,0 mm SO 145 0,0 km/h (0 Bft)
24.01.2018 18:25 1,3 C 93 % 1024,7 hPa 0,0 mm SO 145 0,0 km/h (0 Bft)
24.01.2018 18:30 1,2 C 93 % 1024,6 hPa 0,0 mm SO 145 3,2 km/h (1 Bft)
24.01.2018 18:35 1,1 C 93 % 1024,7 hPa 0,0 mm SO 145 3,2 km/h (1 Bft)
24.01.2018 18:40 1,1 C 94 % 1024,6 hPa 0,0 mm SO 145 3,2 km/h (1 Bft)
24.01.2018 18:45 1,1 C 94 % 1024,5 hPa 0,0 mm SO 145 3,2 km/h (1 Bft)
24.01.2018 18:50 1,0 C 94 % 1024,4 hPa 0,0 mm SO 145 0,0 km/h (0 Bft)
24.01.2018 18:55 0,8 C 94 % 1024,4 hPa 0,0 mm SO 145 3,2 km/h (1 Bft)
24.01.2018 19:00 0,7 C 94 % 1024,5 hPa 0,0 mm SO 145 3,2 km/h (1 Bft)
24.01.2018 19:05 0,8 C 94 % 1024,3 hPa 0,0 mm SO 145 3,2 km/h (1 Bft)
24.01.2018 19:10 0,8 C 94 % 1024,2 hPa 0,0 mm SO 145 3,2 km/h (1 Bft)
24.01.2018 19:15 0,6 C 94 % 1024,2 hPa 0,0 mm SO 145 1,6 km/h (1 Bft)
24.01.2018 19:20 0,4 C 94 % 1024,1 hPa 0,0 mm SO 145 3,2 km/h (1 Bft)
24.01.2018 19:25 0,4 C 94 % 1024,1 hPa 0,0 mm SO 145 3,2 km/h (1 Bft)
24.01.2018 19:30 0,5 C 94 % 1024,1 hPa 0,0 mm SO 145 1,6 km/h (1 Bft)
24.01.2018 19:35 0,7 C 94 % 1024,0 hPa 0,0 mm SO 145 3,2 km/h (1 Bft)
24.01.2018 19:40 0,5 C 94 % 1024,0 hPa 0,0 mm W-SW 245 4,8 km/h (1 Bft)
24.01.2018 19:45 0,4 C 95 % 1024,0 hPa 0,0 mm W-SW 246 4,8 km/h (1 Bft)
24.01.2018 19:50 0,6 C 95 % 1023,9 hPa 0,0 mm W-SW 246 4,8 km/h (1 Bft)
24.01.2018 19:55 0,6 C 95 % 1024,0 hPa 0,0 mm W-SW 246 6,4 km/h (2 Bft)
24.01.2018 20:00 0,7 C 95 % 1023,9 hPa 0,0 mm W-SW 246 4,8 km/h (1 Bft)
24.01.2018 20:05 0,5 C 95 % 1023,9 hPa 0,0 mm W-SW 246 4,8 km/h (1 Bft)
24.01.2018 20:10 0,5 C 95 % 1023,8 hPa 0,0 mm W-SW 246 4,8 km/h (1 Bft)
24.01.2018 20:15 0,6 C 95 % 1023,9 hPa 0,0 mm W-SW 246 4,8 km/h (1 Bft)
24.01.2018 20:20 0,6 C 95 % 1023,7 hPa 0,0 mm W-SW 246 4,8 km/h (1 Bft)
24.01.2018 20:25 0,5 C 95 % 1023,7 hPa 0,0 mm W-SW 246 1,6 km/h (1 Bft)
24.01.2018 20:30 0,5 C 95 % 1023,6 hPa 0,0 mm W-SW 246 3,2 km/h (1 Bft)
24.01.2018 20:35 0,6 C 95 % 1023,5 hPa 0,0 mm W-SW 246 3,2 km/h (1 Bft)
24.01.2018 20:40 0,3 C 95 % 1023,6 hPa 0,0 mm W-SW 246 1,6 km/h (1 Bft)
24.01.2018 20:45 0,4 C 95 % 1023,5 hPa 0,0 mm W-SW 246 0,0 km/h (0 Bft)
24.01.2018 20:50 0,3 C 95 % 1023,5 hPa 0,0 mm W-SW 246 4,8 km/h (1 Bft)
24.01.2018 20:55 0,3 C 95 % 1023,5 hPa 0,0 mm W-SW 250 4,8 km/h (1 Bft)
24.01.2018 21:00 0,3 C 95 % 1023,4 hPa 0,0 mm W-SW 250 4,8 km/h (1 Bft)
24.01.2018 21:05 0,2 C 95 % 1023,4 hPa 0,0 mm W-SW 250 0,0 km/h (0 Bft)
24.01.2018 21:10 0,2 C 95 % 1023,4 hPa 0,0 mm W-SW 250 3,2 km/h (1 Bft)
24.01.2018 21:15 0,1 C 95 % 1023,4 hPa 0,0 mm W-SW 250 3,2 km/h (1 Bft)
24.01.2018 21:20 0,2 C 95 % 1023,3 hPa 0,0 mm W-SW 250 4,8 km/h (1 Bft)
24.01.2018 21:25 0,2 C 95 % 1023,2 hPa 0,0 mm W-SW 250 4,8 km/h (1 Bft)
24.01.2018 21:30 0,1 C 95 % 1023,2 hPa 0,0 mm W-SW 250 3,2 km/h (1 Bft)
24.01.2018 21:35 -0,1 C 95 % 1023,2 hPa 0,0 mm W-SW 250 3,2 km/h (1 Bft)
24.01.2018 21:40 -0,1 C 95 % 1023,2 hPa 0,0 mm W-SW 250 3,2 km/h (1 Bft)
24.01.2018 21:45 0,1 C 95 % 1023,1 hPa 0,0 mm W-SW 249 4,8 km/h (1 Bft)
24.01.2018 21:50 0,1 C 95 % 1023,1 hPa 0,0 mm W-SW 250 1,6 km/h (1 Bft)
24.01.2018 21:55 -0,1 C 95 % 1023,1 hPa 0,0 mm W-SW 250 3,2 km/h (1 Bft)
24.01.2018 22:00 -0,3 C 95 % 1023,1 hPa 0,0 mm W-SW 250 4,8 km/h (1 Bft)
24.01.2018 22:05 -0,2 C 95 % 1023,0 hPa 0,0 mm W-SW 255 6,4 km/h (2 Bft)
24.01.2018 22:10 -0,1 C 95 % 1022,9 hPa 0,0 mm W-SW 255 3,2 km/h (1 Bft)
24.01.2018 22:15 -0,2 C 95 % 1022,9 hPa 0,0 mm W-SW 255 3,2 km/h (1 Bft)
24.01.2018 22:20 -0,2 C 95 % 1022,8 hPa 0,0 mm W-SW 255 4,8 km/h (1 Bft)
24.01.2018 22:25 -0,2 C 95 % 1022,7 hPa 0,0 mm W-SW 255 3,2 km/h (1 Bft)
24.01.2018 22:30 -0,3 C 95 % 1022,7 hPa 0,0 mm W-SW 255 4,8 km/h (1 Bft)
24.01.2018 22:35 -0,1 C 95 % 1022,8 hPa 0,0 mm W-SW 255 4,8 km/h (1 Bft)
24.01.2018 22:40 -0,2 C 95 % 1022,8 hPa 0,0 mm W-SW 255 4,8 km/h (1 Bft)
24.01.2018 22:45 -0,6 C 95 % 1022,8 hPa 0,0 mm W-SW 255 3,2 km/h (1 Bft)
24.01.2018 22:50 -0,5 C 95 % 1022,8 hPa 0,0 mm W-SW 255 4,8 km/h (1 Bft)
24.01.2018 22:55 -0,4 C 95 % 1022,8 hPa 0,0 mm W-SW 255 4,8 km/h (1 Bft)
24.01.2018 23:00 -0,4 C 95 % 1022,7 hPa 0,0 mm W-SW 255 4,8 km/h (1 Bft)
24.01.2018 23:05 -0,4 C 95 % 1022,6 hPa 0,0 mm W-SW 255 3,2 km/h (1 Bft)
24.01.2018 23:10 -0,4 C 95 % 1022,6 hPa 0,0 mm W-SW 255 4,8 km/h (1 Bft)
24.01.2018 23:15 -0,4 C 95 % 1022,5 hPa 0,0 mm W-SW 256 6,4 km/h (2 Bft)
24.01.2018 23:20 -0,3 C 95 % 1022,5 hPa 0,0 mm W-SW 256 4,8 km/h (1 Bft)
24.01.2018 23:25 -0,4 C 95 % 1022,5 hPa 0,0 mm W-SW 256 3,2 km/h (1 Bft)
24.01.2018 23:30 -0,3 C 96 % 1022,6 hPa 0,0 mm W-SW 256 3,2 km/h (1 Bft)
24.01.2018 23:35 -0,3 C 96 % 1022,6 hPa 0,0 mm W-SW 256 4,8 km/h (1 Bft)
24.01.2018 23:40 -0,3 C 95 % 1022,7 hPa 0,0 mm W-SW 256 3,2 km/h (1 Bft)
24.01.2018 23:45 -0,3 C 96 % 1022,5 hPa 0,0 mm W-SW 256 4,8 km/h (1 Bft)
24.01.2018 23:50 -0,3 C 96 % 1022,6 hPa 0,0 mm W-SW 256 3,2 km/h (1 Bft)
24.01.2018 23:55 -0,3 C 96 % 1022,6 hPa 0,0 mm W-SW 256 4,8 km/h (1 Bft)
_ Min-Zeit 03:45 13:40 23:15 - - - 00:05
Minimum _ -2,8 C 79 % 1022,5 hPa - - - 0,0 km/h (0 Bft)
_ Max-Zeit 15:05 05:05 03:15 00:00 - - 03:50
Maximum _ 6,1 C 96 % 1030,4 hPa 0,0 mm - - 6,4 km/h
W (2 Bft)
Durchschnitt _ 0,9 C 92 % 1027,4 hPa #0,0 mm W - 1,9 km/h (1 Bft)